Regional Weather Roundup
Issued by NWS

Home | Current Version | Previous Version | Text Only | Print | Product List | Glossary On
Versions: 1 2 3 4 5 6 7 8 9 10 11 12 13 14 15 16 17 18 19 20 21 22 23 24 25 26 27 28 29 30 31 32 33 34 35 36 37 38 39 40 41 42 43 44 45 46 47 48 49 50
000
ASUS43 KTOP 251508
RWRKS

WEATHER ROUNDUP FOR KANSAS
NATIONAL WEATHER SERVICE GOODLAND KS
1000 AM CDT FRI JUL 25 2014

NOTE:  "FAIR" INDICATES FEW OR NO CLOUDS BELOW 12,000 FEET WITH NO
SIGNIFICANT WEATHER AND/OR OBSTRUCTIONS TO VISIBILITY.

KSZ001>006-013>018-027>032-041>047-251600-
NORTHWEST KANSAS

CITY           SKY/WX    TMP DP  RH WIND       PRES   REMARKS
GOODLAND       SUNNY     85  54  34 N14       29.95R
HAYS           MOSUNNY   75  63  64 SW15G22   29.84F
HILL CITY      PTSUNNY   86  62  44 SW10      29.83S
RUSSELL        MOSUNNY   89  66  46 SW20G31   29.82F
$$

KSZ061>065-074>080-084>089-251600-
SOUTHWEST KANSAS

CITY           SKY/WX    TMP DP  RH WIND       PRES   REMARKS
DODGE CITY     SUNNY     86  61  42 SW23G33   29.91S
ELKHART          N/A     84  55  36 SW17        N/A
GARDEN CITY    SUNNY     83  62  49 SW14G20   29.91S
GREAT BEND     MOSUNNY   88  64  45 SW25G32   29.83F
LIBERAL        SUNNY     88  61  40 SW23G30   29.97F
PRATT          SUNNY     84  64  51 SW20G26   29.92F
$$

KSZ066>073-081>083-090>101-251600-
SOUTHEAST KANSAS

CITY           SKY/WX    TMP DP  RH WIND       PRES   REMARKS
CHANUTE        MOSUNNY   82  70  66 S17G25    29.94F
COFFEYVILLE    SUNNY     81  72  74 S18G25    29.95F
HUTCHINSON     SUNNY     87  67  51 SW20G25   29.88F
MEDICINE LODGE   N/A     85  69  58 S12       29.92S
NEWTON         MOSUNNY   82  66  57 SW18      29.92F
PARSONS        SUNNY     82  72  71 S12       29.96F
WICHITA INTL   MOSUNNY   84  68  58 SW20G28   29.89F
WICHITA JABRA  MOSUNNY   86  69  56 S18G25    29.89F
WICHITA MCCONL SUNNY     83  70  64 S13G22    29.91F
WINFIELD       SUNNY     83  71  67 S16       29.94F
$$

KSZ007>012-019>026-033>040-048>060-102>105-251600-
NORTHEAST KANSAS

CITY           SKY/WX    TMP DP  RH WIND       PRES   REMARKS
CONCORDIA      SUNNY     89  67  47 SW17G32   29.80F
EMPORIA        MOSUNNY   83  69  62 S17G25    29.87F
LAWRENCE       MOSUNNY   84  71  65 S10       29.86F
MANHATTAN      SUNNY     89  69  51 SW20G28   29.82S
MARYSVILLE     MOSUNNY   88  70  55 SW15G22   29.80S
OLATHE IND     PTSUNNY   81  71  71 S17       29.89F
OLATHE EXE     MOSUNNY   79  71  76 S17G23    29.88F
SALINA         PTSUNNY   88  67  49 SW25G32   29.81F
TOPEKA BILLARD PTSUNNY   85  71  63 SW13      29.84F
TOPEKA FORBES  LGT RAIN  82  69  64 SW15G23   29.85F
$$


USA.gov is the U.S. government's official web portal to all federal, state and local government web resources and services.